Regional Weather Roundup
Issued by NWS

Home |  Current Version |  Previous Version |  Text Only |  Print | Product List |  Glossary On
Versions: 1 2 3 4 5 6 7 8 9 10 11 12 13 14 15 16 17 18 19 20 21 22 23 24 25 26 27 28
760
ASUS45 KBOU 240510
RWRCO

WEATHER ROUNDUP FOR COLORADO
NATIONAL WEATHER SERVICE DENVER/BOULDER CO
1100 PM MDT TUE JUL 23 2024

NOTE: "FAIR" INDICATES FEW OR NO CLOUDS BELOW 12000 FEET WITH NO
SIGNIFICANT WEATHER AND/OR OBSTRUCTIONS TO VISIBILITY.

COZ001>005-013-030-031-240600-
...NORTHWEST COLORADO...

CITY           SKY/WX    TMP DP  RH WIND       PRES   REMARKS
CRAIG          FAIR      74  39  28 W3        30.31S
HAYDEN         FAIR      70  38  31 NE6       30.36R
MEEKER         FAIR      68  38  33 S6        30.33R
RANGELY        FAIR      79  37  21 CALM      30.20S
RABBIT EARS PA FAIR      59  28  31 N3        30.68S
STEAMBOAT SPGS FAIR      58  40  51 SE6       30.37R
WALDEN         NOT AVBL
$$

COZ006>008-011-240600-
...WEST CENTRAL VALLEYS...

CITY           SKY/WX    TMP DP  RH WIND       PRES   REMARKS
GRAND JUNCTION FAIR      83  36  18 CALM      30.15R
MONTROSE       FAIR      72  38  29 SE13      30.27R
EAGLE          FAIR      65  36  34 E7        30.37R
RIFLE          FAIR      73  36  25 E8        30.23R
DELTA          NOT AVBL
NUCLA          NOT AVBL
$$

COZ017>023-064>068-240600-
...SOUTHWEST COLORADO...

CITY           SKY/WX    TMP DP  RH WIND       PRES   REMARKS
DURANGO        FAIR      70  44  39 E8        30.37R
CORTEZ         FAIR      69  39  33 E6        30.27R
PAGOSA SPRINGS FAIR      60  49  66 CALM      30.47R
TELLURIDE      FAIR      61  19  20 SE6       30.58R
WOLF CREEK PAS FAIR      50  32  50 SW3       30.84S
$$

COZ009-010-012-014-032>034-037-058>063-240600-
...CENTRAL COLORADO...

CITY           SKY/WX    TMP DP  RH WIND       PRES   REMARKS
ASPEN          FAIR      57  37  47 SW10      30.45R
BUENA VISTA    FAIR      55  40  57 MISG      30.51S
COPPER MTN     FAIR      55  32  41 S12       30.81S
BERTHOUD PASS  FAIR      46  28  49 CALM      30.84S
DAKOTA HILL    FAIR      52  34  50 CALM      30.72S
COTTONWOOD PAS FAIR      57  36  44 NW3       30.64S
GUNNISON       FAIR      64  40  41 VRB5      30.46R
GRANBY         FAIR      51  -7   8 CALM      30.51R
KREMMLING      FAIR      57  37  47 CALM      30.45R
LEADVILLE      FAIR      51  32  48 NE6       30.63R
MONARCH PASS   FAIR      50  32  50 S5        30.90S
SALIDA         FAIR      62  41  46 NW6       30.45S
SUNLIGHT       FAIR      55  23  28 CALM      30.72S
WILKERSON PASS FAIR      54  39  58 SE3       30.78S
$$

COZ069>075-240600-
...SAN LUIS VALLEY/SANGRE DE CRISTO MOUNTAINS...

CITY           SKY/WX    TMP DP  RH WIND       PRES   REMARKS
ALAMOSA        FAIR      60  46  59 SE7       30.45R
DEL NORTE      FAIR      60  43  53 SW5       30.49S
LA VETA PASS   FAIR      54  34  47 CALM      30.77R
SAGUACHE       FAIR      59  43  55 CALM      30.51S
$$

COZ035-036-038>040-240600-
...NORTHERN COLORADO FRONT RANGE...

CITY           SKY/WX    TMP DP  RH WIND       PRES   REMARKS
DENVER INTL AP FAIR      67  47  48 S12       30.26S
CENTRAL PARK     N/A     72  49  43 S3          N/A
AURORA         CLEAR     69  47  43 S9        30.27S
WATKINS        NOT AVBL
ERIE           FAIR      66  50  55 CALM      30.24R
BOULDER        FAIR      75  37  25 SW7       30.25S
CENTENNIAL     FAIR      67  45  45 S6        30.30S
BROOMFIELD     FAIR      70  41  35 W6        30.28S
FORT COLLINS   FAIR      73  50  44 SE8       30.24R
LONGMONT       FAIR      70  44  39 CALM      30.25S
$$

COZ041-046-047-076>085-087-088-240600-
...PIKES PEAK/PALMER DIVIDE AND SOUTHERN FOOTHILLS...

CITY           SKY/WX    TMP DP  RH WIND       PRES   REMARKS
COLO. SPRINGS  FAIR      68  52  56 E7        30.37R
A. F. ACADEMY  FAIR      60  48  64 N8        30.37R
SCHRIEVER AFB  FAIR      66  52  60 CALM      30.32R
CHEYENNE MTN   FAIR      70  43  37 NW3       30.36R
ELLICOTT       FAIR      63  52  67 S9        30.36R
FALCON         FAIR      63  49  60 SW6       30.42R
FORT CARSON    FAIR      68  45  44 SW5       30.30R
LIMON          FAIR      59  53  80 CALM      30.30R
MONUMENT HILL  FAIR      57  50  77 S9        30.43R
CANON CITY     FAIR      68  52  56 W6        30.30R
WALSENBURG     NOT AVBL
TRINIDAD       FAIR      63  49  60 W9        30.33R
$$

COZ042>045-048>051-090-091-240600-
...NORTHEAST COLORADO...

CITY           SKY/WX    TMP DP  RH WIND       PRES   REMARKS
GREELEY        FAIR      69  51  52 E7        30.23R
AKRON          FAIR      68  54  60 S9        30.24R
BURLINGTON     FAIR      66  32  28 S13       30.23R
WRAY           FAIR      70  54  56 SE7       30.19R
YUMA           FAIR      63  54  72 S7        30.21S
STERLING       FAIR      68  52  56 SW6       30.19R
HOLYOKE        FAIR      63  57  82 CALM      30.19R
FORT MORGAN    FAIR      70  57  64 SE5       30.22R
$$

COZ086-089-092>099-240600-
...SOUTHEAST COLORADO...

CITY           SKY/WX    TMP DP  RH WIND       PRES   REMARKS
PUEBLO         FAIR      69  57  65 CALM      30.25R
LA JUNTA       FAIR      72  54  53 S7        30.22R
LAMAR          FAIR      73  56  54 S14       30.19R
SPRINGFIELD      N/A     63  58  83 S7        30.26R
$$